CW4517 Weather Reports


time (UTC)temp
F
wind
direction
speed
knots
gust
knots
rain 1hr
in
rain 24hr
in
rain mn
in
humidity
%
barometer
mb
20260831175112 85 186 4.3 11.3 0.00 0.00 0.00 65 1011.2
20260831174337 85 181 4.3 11.3 0.00 0.00 0.00 65 1011.5
20260831174326 85 177 3.5 10.4 0.00 0.00 0.00 66 1011.5
20260831173331 84 232 3.5 10.4 0.00 0.00 0.00 67 1011.5
20260831172821 83 229 2.6 10.4 0.00 0.00 0.00 70 1011.9
20260831172320 82 184 2.6 7.0 0.00 0.00 0.00 72 1011.9
20260831171813 81 203 2.6 7.8 0.00 0.00 0.00 73 1011.9
20260831171527 81 131 1.7 7.8 0.00 0.00 0.00 74 1012.0
20260831170801 80 232 1.7 7.0 0.00 0.00 0.00 75 1012.0
20260831170258 79 161 2.6 7.0 0.00 0.00 0.00 75 1012.0
20260831165758 79 173 1.7 7.0 0.00 0.00 0.00 76 1012.3
20260831165256 78 188 1.7 6.1 0.00 0.00 0.00 78 1012.3
20260831165012 77 123 0.9 2.6 0.00 0.00 0.00 80 1012.3
20260831164738 77 116 0.9 2.6 0.00 0.00 0.00 80 1012.5
20260831163754 76 117 0.9 2.6 0.00 0.00 0.00 80 1012.5
20260831163253 76 109 0.9 2.6 0.00 0.00 0.00 80 1012.5
20260831162751 76 98 0.9 2.6 0.00 0.00 0.00 80 1012.6
20260831162253 76 107 0.9 2.6 0.00 0.00 0.00 80 1012.6
20260831161752 76 108 0.9 2.6 0.00 0.00 0.00 79 1012.6
20260831161252 76 132 0.9 5.2 0.00 0.00 0.00 78 1012.8
20260831160751 76 164 0.9 5.2 0.00 0.00 0.00 79 1012.8
20260831160250 76 170 1.7 2.6 0.00 0.00 0.00 79 1012.8
20260831155753 76 158 1.7 3.5 0.00 0.00 0.00 78 1012.7
20260831155254 75 174 1.7 3.5 0.00 0.00 0.00 78 1012.7
20260831154750 75 97 1.7 6.1 0.00 0.00 0.00 79 1012.7
20260831154250 75 134 1.7 6.1 0.00 0.00 0.00 78 1012.7
20260831153751 75 111 1.7 4.3 0.00 0.00 0.00 80 1012.7
20260831153249 74 118 1.7 4.3 0.00 0.00 0.00 80 1012.7
20260831153014 74 167 1.7 4.3 0.00 0.00 0.00 82 1012.8
20260831152250 74 141 1.7 3.5 0.00 0.00 0.00 82 1012.8
20260831152012 74 120 0.9 2.6 0.00 0.00 0.00 82 1012.8
20260831151250 74 136 0.0 2.6 0.00 0.00 0.00 82 1012.9
20260831151009 73 122 0.9 4.3 0.00 0.00 0.00 82 1012.9
20260831150249 73 121 1.7 4.3 0.00 0.00 0.00 82 1012.9
20260831145959 73 122 1.7 4.3 0.00 0.00 0.00 83 1013.0
20260831145236 73 118 0.0 4.3 0.00 0.00 0.00 82 1013.0
20260831144729 73 138 0.0 0.0 0.00 0.00 0.00 83 1013.0
20260831144702 73 130 0.0 0.9 0.00 0.00 0.00 82 1013.0
20260831143718 73 123 0.9 4.3 0.00 0.00 0.00 83 1013.0
20260831143207 72 109 0.9 4.3 0.00 0.00 0.00 84 1013.0
20260831142705 72 112 0.9 2.6 0.00 0.00 0.00 84 1013.2
20260831142201 72 90 0.9 3.5 0.00 0.00 0.00 84 1013.2
20260831141654 72 103 1.7 4.3 0.00 0.00 0.00 83 1013.2
20260831141413 72 339 0.9 4.3 0.00 0.00 0.00 82 1012.5
20260831140638 72 102 0.9 2.6 0.00 0.00 0.00 82 1012.5
20260831140135 72 129 0.9 2.6 0.00 0.00 0.00 81 1012.5
20260831135629 72 173 0.9 2.6 0.00 0.00 0.00 81 1012.7
20260831135123 72 134 0.9 2.6 0.00 0.00 0.00 81 1012.7
20260831134617 73 115 0.0 1.7 0.00 0.00 0.00 81 1012.7
20260831134111 73 116 0.0 0.0 0.00 0.00 0.00 81 1012.9
20260831133607 72 123 0.0 0.0 0.00 0.00 0.00 81 1012.9
20260831133325 72 123 0.0 0.0 0.00 0.00 0.00 81 1012.9
20260831132553 72 123 0.0 1.7 0.00 0.00 0.00 81 1012.5
20260831132048 72 130 0.0 1.7 0.00 0.00 0.00 81 1012.5
20260831131537 72 130 0.0 1.7 0.00 0.00 0.00 80 1012.5
20260831131037 72 156 0.0 2.6 0.00 0.00 0.00 81 1012.2
20260831130525 71 188 0.9 2.6 0.00 0.00 0.00 81 1012.2
20260831130023 71 151 0.9 3.5 0.00 0.00 0.00 82 1012.2
20260831125518 71 181 0.9 5.2 0.00 0.00 0.00 82 1011.9
20260831125011 71 207 0.9 5.2 0.00 0.00 0.00 82 1011.9
20260831124506 71 192 0.9 4.3 0.00 0.00 0.00 82 1011.9
20260831123958 71 169 0.9 3.5 0.00 0.00 0.00 83 1011.9
20260831123452 71 157 0.9 4.3 0.00 0.00 0.00 83 1011.9
20260831123209 71 205 1.7 4.3 0.00 0.00 0.00 82 1011.9
20260831122441 72 221 1.7 4.3 0.00 0.00 0.00 81 1011.9
20260831121935 72 165 2.6 7.0 0.00 0.00 0.00 81 1011.9
20260831121429 72 214 2.6 7.0 0.00 0.00 0.00 81 1011.6
20260831121147 72 199 1.7 5.2 0.00 0.00 0.00 80 1011.6
20260831120637 72 207 2.6 5.2 0.00 0.00 0.00 80 1011.6
20260831115917 72 200 2.6 7.0 0.00 0.00 0.00 80 1011.6
20260831115416 72 206 3.5 8.7 0.00 0.00 0.00 80 1011.6
20260831114917 72 239 4.3 8.7 0.00 0.00 0.00 79 1011.6
20260831114417 72 201 3.5 7.8 0.00 0.00 0.00 79 1011.3
20260831113914 72 239 3.5 7.8 0.00 0.00 0.00 79 1011.3
20260831113638 72 190 2.6 7.8 0.00 0.00 0.00 79 1011.3
20260831112915 72 181 2.6 6.1 0.00 0.00 0.00 79 1011.1
20260831112414 72 187 2.6 6.1 0.00 0.00 0.00 80 1011.1
20260831111918 72 217 2.6 7.0 0.00 0.00 0.00 79 1011.1
20260831111418 72 179 2.6 7.8 0.00 0.00 0.00 79 1011.3
20260831111129 72 167 2.6 7.8 0.00 0.00 0.00 79 1011.3
20260831110359 72 178 2.6 7.0 0.00 0.00 0.00 79 1011.3
20260831105847 72 180 2.6 7.0 0.00 0.00 0.00 79 1011.1
20260831105558 72 223 2.6 7.0 0.00 0.00 0.00 79 1011.1
20260831105058 72 208 2.6 7.0 0.00 0.00 0.00 79 1011.1
20260831104326 72 227 2.6 6.1 0.00 0.00 0.00 79 1011.1
20260831104039 72 189 2.6 7.0 0.00 0.00 0.00 79 1011.1
20260831103313 72 212 2.6 7.0 0.00 0.00 0.00 79 1011.1
20260831103039 72 231 2.6 6.1 0.00 0.00 0.00 79 1011.1
20260831102305 72 248 1.7 5.2 0.00 0.00 0.00 79 1011.1
20260831101755 72 219 1.7 5.2 0.00 0.00 0.00 79 1011.1
20260831101249 72 237 1.7 5.2 0.00 0.00 0.00 79 1011.1
20260831100739 72 205 1.7 3.5 0.00 0.00 0.00 79 1011.1
20260831100234 72 167 1.7 5.2 0.00 0.00 0.00 79 1011.1
20260831095957 73 207 2.6 6.1 0.00 0.00 0.00 79 1011.1
20260831095225 73 232 2.6 6.1 0.00 0.00 0.00 79 1011.1
20260831094937 73 188 2.6 4.3 0.00 0.00 0.00 78 1011.1
20260831094440 73 184 2.6 4.3 0.00 0.00 0.00 78 1011.1
20260831093924 73 209 1.7 6.1 0.00 0.00 0.00 78 1011.1
20260831093201 73 227 1.7 6.1 0.00 0.00 0.00 78 1011.1
20260831092656 73 238 2.6 5.2 0.00 0.00 0.00 78 1011.3
20260831092631 73 263 2.6 5.2 0.00 0.00 0.00 77 1011.3
20260831091640 73 206 2.6 5.2 0.00 0.00 0.00 77 1011.3
20260831091400 74 173 2.6 5.2 0.00 0.00 0.00 78 1011.3
20260831090633 74 227 2.6 6.1 0.00 0.00 0.00 77 1011.3
20260831090122 74 228 2.6 7.0 0.00 0.00 0.00 77 1011.3
20260831085620 74 214 2.6 7.0 0.00 0.00 0.00 77 1011.3
20260831085112 74 230 1.7 7.0 0.00 0.00 0.00 77 1011.3
20260831084607 74 214 0.9 4.3 0.00 0.00 0.00 77 1011.3
20260831084102 74 196 0.9 3.5 0.00 0.00 0.00 78 1011.2
20260831083552 74 238 0.9 3.5 0.00 0.00 0.00 78 1011.2
20260831083050 74 171 0.9 4.3 0.00 0.00 0.00 78 1011.2
20260831082804 74 173 0.9 4.3 0.00 0.00 0.00 78 1011.2
20260831082036 74 107 0.9 3.5 0.00 0.00 0.00 77 1011.2
20260831081530 74 204 1.7 4.3 0.00 0.00 0.00 78 1011.2
20260831081020 74 171 1.7 4.3 0.00 0.00 0.00 78 1011.3
20260831080520 74 250 0.9 6.1 0.00 0.00 0.00 78 1011.3
20260831080014 74 144 0.9 6.1 0.00 0.00 0.00 78 1011.3
20260831075507 74 173 0.9 5.2 0.00 0.00 0.00 79 1011.3
20260831075001 74 176 0.9 5.2 0.00 0.00 0.00 79 1011.3
20260831074451 74 179 0.9 3.5 0.00 0.00 0.00 79 1011.3
20260831074216 74 219 0.9 2.6 0.00 0.00 0.00 80 1011.3
20260831073440 74 217 0.9 2.6 0.00 0.00 0.00 80 1011.3
20260831072939 74 180 0.9 4.3 0.00 0.00 0.00 80 1011.3
20260831072441 74 134 0.9 4.3 0.00 0.00 0.00 80 1011.4
20260831071940 74 133 1.7 4.3 0.00 0.00 0.00 79 1011.4
20260831071440 74 103 1.7 3.5 0.00 0.00 0.00 79 1011.4
20260831070939 74 97 0.9 3.5 0.00 0.00 0.00 78 1011.5
20260831070440 74 125 0.9 3.5 0.00 0.00 0.00 78 1011.5
20260831065942 75 173 0.9 3.5 0.00 0.00 0.00 78 1011.5
20260831065443 75 115 0.9 2.6 0.00 0.00 0.00 78 1011.6
20260831064937 75 140 0.9 2.6 0.00 0.00 0.00 78 1011.6
20260831064425 75 94 0.9 4.3 0.00 0.00 0.00 78 1011.5
20260831063916 75 150 0.9 4.3 0.00 0.00 0.00 78 1011.5
20260831063410 75 109 0.9 2.6 0.00 0.00 0.00 78 1011.5
20260831062902 75 189 0.9 2.6 0.00 0.00 0.00 78 1011.4
20260831062356 75 197 0.9 7.8 0.00 0.00 0.00 78 1011.4
20260831061850 75 189 1.7 7.8 0.00 0.00 0.00 78 1011.4
20260831061346 76 215 2.6 6.1 0.00 0.00 0.00 78 1011.2
20260831060840 76 211 2.6 6.1 0.00 0.00 0.00 78 1011.2
20260831060326 76 186 2.6 5.2 0.00 0.00 0.00 78 1011.2
20260831055826 76 173 2.6 6.1 0.00 0.00 0.00 78 1011.0
20260831055320 76 192 1.7 6.1 0.00 0.00 0.00 78 1011.0
20260831054814 76 180 2.6 7.0 0.00 0.00 0.00 78 1011.0
20260831054308 76 212 2.6 7.0 0.00 0.00 0.00 78 1011.4
20260831053757 76 215 1.7 7.0 0.00 0.00 0.00 78 1011.4
20260831053256 76 236 1.7 7.0 0.00 0.00 0.00 78 1011.4
20260831052753 76 210 1.7 5.2 0.00 0.00 0.00 78 1011.4
20260831052500 76 194 0.9 6.1 0.00 0.00 0.00 77 1011.4
20260831051739 76 182 0.0 6.1 0.00 0.00 0.00 78 1011.4
20260831051233 76 155 0.9 4.3 0.00 0.00 0.00 78 1011.4
20260831050727 76 194 0.9 4.3 0.00 0.00 0.00 78 1011.4
20260831050433 76 194 0.0 3.5 0.00 0.00 0.00 79 1011.4
20260831045717 76 264 0.9 5.2 0.00 0.00 0.00 79 1011.5
20260831045202 76 175 0.9 5.2 0.00 0.00 0.00 79 1011.5
20260831044705 76 184 0.0 5.2 0.00 0.00 0.00 79 1011.5
20260831044416 76 184 0.0 4.3 0.00 0.00 0.00 80 1011.9
20260831043652 76 228 0.0 1.7 0.00 0.00 0.00 81 1011.9
20260831043141 75 187 0.0 3.5 0.00 0.00 0.00 82 1011.9
20260831042636 75 187 0.9 3.5 0.00 0.00 0.00 83 1011.8
20260831042134 75 186 0.9 3.5 0.00 0.00 0.00 83 1011.8
20260831041628 75 206 0.9 2.6 0.00 0.00 0.00 84 1011.8
20260831041122 75 192 0.9 2.6 0.00 0.00 0.00 85 1012.2
20260831040843 75 135 0.9 1.7 0.00 0.00 0.00 85 1012.2
20260831040110 75 123 0.0 1.7 0.00 0.00 0.00 85 1012.2
20260831035604 75 124 0.0 1.7 0.00 0.00 0.00 85 1012.4
20260831035102 75 150 0.0 0.9 0.00 0.00 0.00 86 1012.4
20260831034601 75 186 0.0 1.7 0.00 0.00 0.00 86 1012.4
20260831034101 75 186 0.0 2.6 0.00 0.00 0.00 86 1012.5
20260831033601 75 209 0.0 2.6 0.00 0.00 0.00 86 1012.5
20260831033323 75 207 0.0 1.7 0.00 0.00 0.00 86 1012.5
20260831032559 75 207 0.0 2.6 0.00 0.00 0.00 86 1012.3
20260831032057 75 197 0.0 2.6 0.00 0.00 0.00 86 1012.3
20260831031557 75 122 0.0 2.6 0.00 0.00 0.00 87 1012.3
20260831031058 75 121 0.9 3.5 0.00 0.00 0.00 87 1012.3
20260831030812 75 124 0.9 3.5 0.00 0.00 0.00 87 1012.3
20260831030057 75 194 0.9 3.5 0.00 0.00 0.00 87 1012.3
20260831025553 75 186 0.0 3.5 0.00 0.00 0.00 87 1012.5
20260831025054 75 99 0.0 0.9 0.00 0.00 0.00 87 1012.5
20260831024551 75 172 0.0 0.0 0.00 0.00 0.00 87 1012.5
20260831024049 75 140 0.0 0.0 0.00 0.00 0.00 87 1012.9
20260831023549 75 140 0.0 0.0 0.00 0.00 0.00 86 1012.9
20260831023049 75 122 0.0 0.0 0.00 0.00 0.00 86 1012.9
20260831022550 75 93 0.0 0.0 0.00 0.00 0.00 86 1012.9
20260831022045 75 71 0.0 0.0 0.00 0.00 0.00 85 1012.9
20260831021535 76 211 0.0 0.0 0.00 0.00 0.00 85 1012.9
20260831021519 76 144 0.0 0.0 0.00 0.00 0.00 85 1012.4
20260831020731 76 115 0.0 0.0 0.00 0.00 0.00 85 1012.4
20260831020013 76 137 0.0 0.0 0.00 0.00 0.00 85 1012.4
20260831015738 76 171 0.0 0.0 0.00 0.00 0.00 85 1012.5
20260831015013 76 182 0.0 0.0 0.00 0.00 0.00 85 1012.5
20260831014512 76 182 0.0 0.0 0.00 0.00 0.00 85 1012.5
20260831014014 76 182 0.0 0.0 0.00 0.00 0.00 84 1012.3
20260831013512 76 182 0.0 0.0 0.00 0.00 0.00 84 1012.3
20260831013013 76 153 0.0 0.0 0.00 0.00 0.00 84 1012.3
20260831012513 76 114 0.0 0.9 0.00 0.00 0.00 84 1012.0
20260831012012 76 225 0.0 1.7 0.00 0.00 0.00 84 1012.0
20260831011459 76 225 0.0 1.7 0.00 0.00 0.00 84 1012.0
20260831010959 76 192 0.9 2.6 0.00 0.00 0.00 84 1011.6
20260831010452 76 114 0.9 2.6 0.00 0.00 0.00 84 1011.6
20260831010202 76 142 0.9 3.5 0.00 0.00 0.00 84 1011.8
20260831005441 76 140 0.9 3.5 0.00 0.00 0.00 85 1011.8
20260831004935 76 145 0.9 3.5 0.00 0.00 0.00 85 1011.8
20260831004429 76 133 0.9 2.6 0.00 0.00 0.00 85 1012.4
20260831004139 76 154 1.7 2.6 0.00 0.00 0.00 85 1012.4
20260831003416 76 133 0.9 2.6 0.00 0.00 0.00 85 1012.4
20260831003352 76 109 0.0 0.9 0.00 0.00 0.00 85 1012.4
20260831002404 76 109 0.0 1.7 0.00 0.00 0.00 85 1012.4
20260831001859 76 109 0.0 1.7 0.00 0.00 0.00 85 1012.4
20260831001349 76 109 0.9 3.5 0.00 0.00 0.00 85 1011.9
20260831000847 76 105 0.9 3.5 0.00 0.00 0.00 85 1011.9
20260831000342 76 108 1.7 4.3 0.00 0.00 0.00 85 1011.9
20260830235834 76 147 1.7 5.2 0.00 0.00 0.00 85 1012.2
20260830235328 76 163 0.9 5.2 0.00 0.00 0.00 85 1012.2
20260830234822 76 151 0.9 3.5 0.00 0.00 0.00 85 1012.2
20260830234317 76 144 0.9 2.6 0.00 0.00 0.00 85 1012.5
20260830233806 77 123 0.9 1.7 0.00 0.00 0.00 84 1012.5
20260830233304 77 123 0.0 1.7 0.00 0.00 0.00 84 1012.5
20260830233026 78 122 0.0 1.7 0.00 0.00 0.00 83 1012.8
20260830232251 78 121 0.0 0.0 0.00 0.00 0.00 83 1012.8
20260830231747 78 121 0.0 0.0 0.00 0.00 0.00 82 1012.8
20260830231236 78 121 0.0 0.0 0.00 0.00 0.00 82 1012.9
20260830230734 78 121 0.0 0.9 0.00 0.00 0.00 82 1012.9
20260830230230 78 121 0.0 0.9 0.00 0.00 0.00 81 1012.9
20260830225724 78 121 0.0 0.0 0.00 0.00 0.00 81 1012.9
20260830225441 78 121 0.0 0.0 0.00 0.00 0.00 80 1012.9
20260830224711 78 121 0.0 0.0 0.00 0.00 0.00 80 1012.9
20260830224205 78 121 0.0 0.0 0.00 0.00 0.00 80 1012.5
20260830223654 78 121 0.0 1.7 0.00 0.00 0.00 80 1012.5
20260830223152 78 121 0.9 2.6 0.00 0.00 0.00 80 1012.5
20260830222647 78 121 0.9 2.6 0.00 0.00 0.00 79 1012.4
20260830222140 78 98 0.9 2.6 0.00 0.00 0.00 79 1012.4
20260830221633 79 120 0.0 2.6 0.00 0.00 0.00 80 1012.4
20260830221128 79 102 0.0 0.0 0.00 0.00 0.00 79 1012.5
20260830220618 79 111 0.0 0.9 0.00 0.00 0.00 80 1012.5
20260830220117 79 110 0.0 0.9 0.00 0.00 0.00 79 1012.5
20260830220101 79 92 0.0 0.0 0.00 0.00 0.00 80 1012.9
20260830215118 79 92 0.0 0.0 0.00 0.00 0.00 80 1012.9
20260830214618 79 71 0.0 0.0 0.00 0.00 0.00 79 1012.9
20260830214120 79 71 0.0 0.0 0.00 0.00 0.00 79 1012.9
20260830213617 80 57 0.0 0.0 0.00 0.00 0.00 78 1012.9
20260830213606 80 100 0.0 0.0 0.00 0.00 0.00 78 1012.9
20260830212619 80 246 0.0 0.9 0.00 0.00 0.00 76 1013.0
20260830212113 79 246 0.0 2.6 0.00 0.00 0.00 76 1013.0
20260830211559 79 246 0.9 2.6 0.00 0.00 0.00 75 1013.0
20260830211049 79 253 0.9 3.5 0.00 0.00 0.00 76 1012.9
20260830210537 79 217 0.9 3.5 0.00 0.00 0.00 76 1012.9
20260830210035 79 243 0.9 3.5 0.00 0.00 0.00 76 1012.9
20260830205748 79 239 0.0 3.5 0.00 0.00 0.00 76 1012.9
20260830205513 78 241 0.0 1.7 0.00 0.00 0.00 77 1012.9
20260830204513 78 242 0.9 2.6 0.00 0.00 0.00 78 1012.9
20260830204011 78 242 1.7 3.5 0.00 0.00 0.00 77 1013.0
20260830203505 78 286 1.7 3.5 0.00 0.00 0.00 77 1013.0
20260830202959 78 288 1.7 5.2 0.00 0.00 0.00 78 1013.0
20260830202454 78 215 2.6 6.1 0.00 0.00 0.00 78 1012.8
20260830201943 78 225 1.7 6.1 0.00 0.00 0.00 78 1012.8
20260830201656 78 218 1.7 4.3 0.00 0.00 0.00 79 1012.9
20260830200936 77 202 1.7 5.2 0.00 0.00 0.00 79 1012.9
20260830200430 77 180 1.7 5.2 0.00 0.00 0.00 79 1012.9
20260830195924 77 215 0.9 5.2 0.00 0.00 0.00 79 1012.9
20260830195853 77 238 1.7 5.2 0.00 0.00 0.00 78 1012.9
20260830194911 78 228 2.6 9.6 0.00 0.00 0.00 78 1012.9
20260830194406 78 239 3.5 9.6 0.00 0.00 0.00 76 1012.5
20260830193900 78 222 3.5 8.7 0.00 0.00 0.00 76 1012.5
20260830193353 78 245 3.5 10.4 0.00 0.00 0.00 75 1012.5
20260830192843 79 238 5.2 13.0 0.00 0.00 0.00 75 1012.5
20260830192337 79 211 5.2 13.0 0.00 0.00 0.00 74 1012.5
20260830192051 79 223 4.3 12.2 0.00 0.00 0.00 75 1012.5
20260830191320 79 227 5.2 11.3 0.00 0.00 0.00 75 1012.5
20260830190819 79 213 5.2 11.3 0.00 0.00 0.00 75 1012.5
20260830190313 79 233 4.3 11.3 0.00 0.00 0.00 75 1012.5
20260830185807 79 211 5.2 10.4 0.00 0.00 0.00 75 1012.3
20260830185526 79 200 5.2 10.4 0.00 0.00 0.00 74 1012.3
20260830184752 80 210 6.1 15.6 0.00 0.00 0.00 73 1012.3
20260830184250 80 219 6.1 15.6 0.00 0.00 0.00 73 1011.9
20260830183744 80 223 5.2 15.6 0.00 0.00 0.00 72 1011.9
20260830183236 80 171 6.1 15.6 0.00 0.00 0.00 73 1011.9
20260830183217 79 207 6.1 15.6 0.00 0.00 0.00 74 1012.0
20260830182225 79 207 5.2 12.2 0.00 0.00 0.00 74 1012.0
20260830181720 78 240 5.2 15.6 0.00 0.00 0.00 74 1012.0
20260830181210 78 200 5.2 15.6 0.00 0.00 0.00 74 1012.2
20260830180708 78 210 6.1 17.4 0.00 0.00 0.00 74 1012.2
20260830180201 78 176 6.1 17.4 0.00 0.00 0.00 75 1012.2
20260830175656 77 209 6.1 13.0 0.00 0.00 0.00 76 1012.3